This demonstration page uses our WeatherBlox Daily Observations layout. Learn more.

Left ArrowRight Arrow

Hourly Observations for January 8, 2022

Temp ( °F °C ) Dew Point ( °F °C ) Humidity (%) Winds ( mph kmh ) Pressure ( in mb ) Visibility ( mi km ) Precip ( " mm )
12:53 am 00:53 Clear 30 -1.1 17 -8.3 58 58 Calm 30.36 1028 10 16 0.00 0.00
1:53 am 01:53 Clear 29 -1.7 18 -7.8 63 63 Calm 30.37 1028 10 16 0.00 0.00
2:53 am 02:53 Clear 28 -2.2 19 -7.2 69 69 Calm 30.38 1029 10 16 0.00 0.00
3:53 am 03:53 Clear 28 -2.2 21 -6.1 75 75 Calm 30.39 1029 10 16 0.00 0.00
4:53 am 04:53 Clear 27 -2.8 22 -5.6 81 81 Calm 30.40 1030 10 16 0.00 0.00
5:53 am 05:53 Clear 27 -2.8 22 -5.6 81 81 Calm 30.42 1030 10 16 0.00 0.00
6:53 am 06:53 Clear 29 -1.7 21 -6.1 72 72 NE 6 9 30.45 1031 10 16 0.00 0.00
7:53 am 07:53 Sunny 30 -1.1 20 -6.7 66 66 ENE 6 9 30.48 1032 10 16 0.00 0.00
8:53 am 08:53 Sunny 34 1.1 20 -6.7 56 56 ENE 10 17 30.51 1033 10 16 0.00 0.00
9:53 am 09:53 Sunny 37 2.8 18 -7.8 46 46 E 12 19 30.53 1034 10 16 0.00 0.00
10:53 am 10:53 Sunny 41 5 19 -7.2 41 41 E 7 11 30.54 1034 10 16 0.00 0.00
11:53 am 11:53 Sunny 43 6.1 20 -6.7 40 40 VRB 7 11 30.52 1034 10 16 0.00 0.00
12:53 pm 12:53 Sunny 46 7.8 20 -6.7 35 35 ESE 8 13 30.49 1033 10 16 0.00 0.00
1:53 pm 13:53 Sunny 49 9.4 20 -6.7 32 32 E 8 13 30.46 1032 10 16 0.00 0.00
2:53 pm 14:53 Sunny 51 10.6 20 -6.7 29 29 E 13 20 30.44 1031 10 16 0.00 0.00
3:53 pm 15:53 Sunny 51 10.6 20 -6.7 29 29 E 9 15 30.43 1031 10 16 0.00 0.00
4:53 pm 16:53 Sunny 52 11.1 21 -6.1 30 30 ESE 8 13 30.45 1031 10 16 0.00 0.00
5:53 pm 17:53 Clear 50 10 23 -5 35 35 E 5 7 30.45 1031 10 16 0.00 0.00
6:53 pm 18:53 Clear 48 8.9 25 -3.9 41 41 E 7 11 30.45 1031 10 16 0.00 0.00
7:53 pm 19:53 Clear 47 8.3 28 -2.2 48 48 E 6 9 30.45 1031 10 16 0.00 0.00
8:53 pm 20:53 Clear 45 7.2 29 -1.7 54 54 E 5 7 30.49 1033 10 16 0.00 0.00
9:53 pm 21:53 Partly Cloudy 44 6.7 28 -2.2 53 53 E 12 19 30.50 1033 10 16 0.00 0.00
10:27 pm 22:27 Mostly Cloudy 43 6.1 28 -2.2 56 56 ENE 7 11 30.50 1033 10 16 0.00 0.00
10:53 pm 22:53 Cloudy 44 6.7 27 -2.8 51 51 E 7 11 30.49 1033 10 16 0.00 0.00
11:53 pm 23:53 Cloudy 44 6.7 30 -1.1 58 58 E 9 15 30.48 1032 10 16 0.00 0.00

Powered by AerisWeather